Lid_Strength_Index
6 6 5 5 6 6 6 6 6 6 7 7 6 6 6 5 4 4 4 1 3 5 5 4 4 5 5 5 7 5 6 6 7 9 9 9 10 9 10 9 10 11 12 12 11 13 16 6 6 10 8 5 5 5
5 6 6 5 5 5 5 5 6 6 6 6 6 6 6 5 4 4 5 2 1 4 5 3 3 2 3 3 4 4 6 6 6 8 7 8 9 8 9 12 6 11 9 11 10 10 6 5 6 5 4 5 5 5
5 4 4 4 4 4 5 5 5 5 5 6 6 5 5 5 4 4 5 4 4 6 6 5 5 2 1 1 1 6 4 3 4 3 6 7 10 7 11 10 8 7 5 8 9 7 6 5 4 4 3 4 4 4
5 5 5 5 5 5 5 5 5 5 5 5 5 5 5 4 4 4 5 4 4 5 8 6 2 2 1 0 1 1 2 2 3 4 7 8 9 6 9 8 9 7 6 7 8 6 5 5 5 4 4 3 3 3
5 5 5 5 5 5 4 4 4 5 5 5 5 5 4 4 4 4 4 4 3 6 8 7 4 3 2 1 1 1 2 3 5 7 8 9 6 7 6 7 8 6 7 9 9 5 6 5 4 4 4 4 3 4
5 5 5 5 5 5 5 4 4 5 5 5 5 5 5 4 4 6 6 3 2 3 7 10 4 4 3 2 3 2 3 3 5 6 7 6 4 7 9 9 6 5 4 4 6 4 4 3 3 3 3 3 3 3
5 5 5 5 5 5 5 5 5 5 5 5 5 5 5 4 4 7 6 5 3 2 8 9 8 4 3 3 3 3 2 4 5 6 7 6 6 6 8 11 6 5 4 4 3 3 4 4 4 3 3 3 2 3
5 5 5 5 5 5 5 5 5 5 5 5 5 5 4 4 4 6 3 3 2 5 5 10 9 6 2 5 6 3 5 4 5 6 6 7 6 6 10 7 5 4 4 4 4 3 3 3 3 3 2 3 3 3
5 5 5 5 5 5 5 4 4 5 5 5 5 4 5 6 7 4 2 2 1 4 9 9 10 9 2 4 4 4 5 9 5 8 7 6 8 9 7 6 5 4 4 5 4 4 4 4 4 3 3 3 3 4
4 5 5 5 5 4 4 4 4 3 3 4 4 6 8 4 1 0 2 5 6 6 7 10 6 8 4 5 6 6 6 8 10 7 5 8 9 5 5 4 4 4 4 3 5 5 5 5 4 4 4 3 3 3
4 4 4 4 4 3 3 2 2 2 3 4 6 6 1 -0 2 4 7 8 7 9 7 6 6 7 3 7 7 6 7 7 10 8 9 10 9 6 5 4 3 3 3 3 3 3 3 3 4 4 4 3 3 3
3 3 3 3 3 2 2 2 2 2 2 2 3 1 0 2 6 9 9 8 8 9 5 6 5 5 4 4 7 6 8 8 10 5 10 11 8 6 5 5 5 4 3 3 3 4 3 3 3 3 3 3 3 3
2 2 2 2 2 2 1 1 1 1 1 2 5 6 6 6 11 12 12 10 8 6 5 5 7 5 4 5 7 7 10 10 6 9 11 8 6 5 5 4 4 3 3 3 3 3 3 3 3 3 3 2 3 3
2 2 2 2 2 2 1 1 1 1 3 6 8 10 9 10 9 7 7 6 5 5 5 5 6 6 5 7 7 10 8 8 10 11 10 8 7 6 4 4 4 4 4 4 4 3 3 3 3 3 2 2 3 4
3 3 2 2 2 2 1 1 1 2 5 7 7 10 8 5 5 5 5 5 4 4 5 6 7 6 8 9 8 8 10 11 10 11 9 7 6 5 4 4 5 4 4 5 4 4 3 3 4 3 3 2 3 3
2 3 2 2 2 1 1 1 2 3 6 7 8 8 5 6 6 6 6 6 4 5 5 5 8 10 10 9 10 10 10 11 8 7 5 4 5 4 4 4 4 5 5 5 5 5 4 4 5 4 3 3 3 3
3 3 1 1 1 0 -0 2 3 6 6 7 7 5 5 6 6 5 5 5 3 5 8 7 11 11 7 11 11 8 9 8 6 5 4 4 4 4 4 4 5 5 7 7 7 7 7 6 5 5 6 4 4 4
3 1 1 1 0 1 2 2 4 5 8 5 6 6 4 4 5 5 5 3 5 6 6 8 6 9 10 10 9 6 5 5 4 4 4 4 3 4 3 5 6 7 8 8 8 8 7 7 6 6 5 5 5 4
2 1 1 1 1 2 4 3 3 7 6 5 5 4 5 5 3 3 4 3 3 3 4 6 8 9 8 6 6 5 4 4 5 4 3 2 3 3 4 5 6 7 8 8 8 7 8 7 7 6 6 6 5 4
2 1 1 1 2 4 5 5 2 5 7 6 5 6 6 5 4 4 4 4 4 4 6 7 7 6 5 4 3 4 3 3 4 5 4 3 3 3 4 6 6 6 7 8 8 9 8 8 7 7 7 7 6 6
2 2 2 2 3 4 4 4 5 5 5 6 5 5 5 4 5 5 5 3 5 5 6 5 5 4 3 2 2 2 3 3 3 3 4 4 3 4 5 5 6 6 7 7 7 9 9 9 8 8 7 8 7 7
1 1 2 2 4 4 5 3 5 4 5 5 5 5 6 6 6 5 3 6 6 5 4 4 4 3 3 3 3 2 2 2 2 3 4 4 4 5 6 6 5 6 6 6 7 8 8 8 8 8 8 9 8 8
2 2 2 3 6 6 7 3 6 6 7 6 5 7 7 6 5 3 7 5 5 3 3 3 3 2 3 2 2 2 2 2 3 3 3 3 4 5 5 5 4 5 6 6 6 7 8 9 9 8 8 8 9 9
3 4 6 7 7 8 5 6 5 6 6 7 7 8 7 6 4 6 8 6 5 4 4 4 3 4 3 2 3 3 3 2 3 3 3 3 5 4 3 3 3 3 4 5 6 7 7 8 9 8 8 8 8 9
7 7 7 9 6 7 8 8 7 7 8 7 8 8 7 5 9 8 8 8 7 5 5 4 3 4 5 4 4 3 2 3 3 4 3 3 3 3 3 3 3 3 3 5 7 7 8 7 7 8 9 8 9 10
10 7 9 7 7 8 7 9 9 8 9 9 8 7 6 8 10 11 9 6 6 7 6 5 4 4 4 4 4 4 3 2 2 4 3 2 3 3 4 4 5 4 3 4 5 7 8 8 8 8 9 10 11 9
10 8 5 4 5 5 6 6 6 7 10 11 9 9 9 12 11 8 6 6 7 6 5 5 5 5 4 3 3 2 2 2 4 3 2 1 1 1 2 3 4 3 3 4 5 6 7 8 8 8 8 9 9 9
6 6 8 6 5 5 7 7 8 9 9 7 7 10 11 11 10 8 8 6 5 3 3 2 3 4 4 3 3 2 2 1 1 1 1 1 1 1 0 1 2 10 3 3 4 5 6 7 7 8 8 9 9 9
6 4 5 7 6 6 6 7 8 7 5 6 8 9 8 6 6 6 5 4 4 3 4 4 3 2 2 1 1 1 1 2 3 4 4 4 4 3 1 2 2 3 3 4 11 7 6 6 7 8 8 9 9 9
6 4 6 6 7 8 6 4 5 4 3 4 4 5 5 5 4 2 3 3 4 4 3 3 3 4 4 4 4 3 2 2 2 3 5 4 4 2 1 2 3 3 4 4 5 6 11 8 9 8 9 10 10 10
3 3 6 6 7 5 4 3 2 3 3 4 4 5 5 4 3 2 2 3 4 4 4 4 4 3 4 4 4 5 5 3 3 2 1 1 1 1 1 1 2 3 4 5 6 7 7 8 8 9 10 10 10 10
4 5 6 7 6 3 3 3 4 5 5 5 5 5 5 6 7 4 2 2 4 5 6 5 5 4 3 3 3 3 8 4 4 3 2 1 1 1 1 2 2 2 4 5 6 7 8 8 9 9 9 9 9 9
5 5 5 5 5 6 4 5 5 6 6 7 7 5 5 6 7 4 1 2 3 4 4 4 3 3 2 3 3 4 6 5 5 8 9 9 10 7 2 1 2 3 4 5 6 7 7 8 8 8 8 8 9 9